[[{"header":{"parameterUnit":"m.s-1","parameterCategory":1,"la1":30.2991,"la2":30.254,"lo1":-89.0895,"lo2":-89.0444,"dy":0.0017,"dx":0.0017,"nx":28,"ny":28,"refTime":"2025-03-31T03:00:00:Z","depth":0,"parameterNumber":2,"parameterNumberName":"U-component_of_WINDS"},"data":[0,0,0,0,0,0,0,0,0,0,0,0,0,0,0,0,0,0,0,0,0,0,0,0,0,0,0,0,0,0,0,0,0,0,0,0,0,0,0,0,0,0,0,0,0,0,0,0,0,0,0,0,0,0,0,0,0,0,1.8114,1.8115,0,1.8143,1.8144,1.8144,1.8132,1.8131,1.813,1.813,1.8162,1.8163,1.8165,0,0,0,0,0,0,0,0,0,0,0,0,0,1.8051,1.8053,1.8114,1.8115,1.8115,1.8143,1.8144,1.8144,1.8132,1.8131,1.813,1.8129,1.8161,1.8163,1.8165,0,0,0,0,0,0,0,0,0,0,0,0,0,1.8079,1.8053,1.8114,1.8112,1.8112,1.8143,1.8144,1.8144,1.8132,1.8131,1.813,1.8129,1.8161,1.8163,1.8165,1.8201,0,0,1.8172,1.8173,0,0,0,0,0,0,0,0,1.8078,1.8082,1.8112,1.8112,1.8113,1.8133,1.8133,1.8163,1.8132,1.8125,1.813,1.8128,1.8153,1.8156,1.8164,1.8202,1.8204,1.8173,1.8174,1.8175,1.8176,0,0,0,0,0,0,0,1.8076,1.808,1.8126,1.8113,1.8113,1.8111,1.8114,1.8139,1.8145,1.8125,1.8124,1.8128,1.8153,1.8162,1.8165,1.8204,1.8172,1.8174,1.8176,1.8177,1.8274,1.8276,0,0,0,0,0,0,1.8074,1.8079,1.8125,1.8127,1.8092,1.8113,1.8116,1.8127,1.8144,1.8146,1.8129,1.8127,1.8158,1.8162,1.8166,1.8209,1.8175,1.8177,1.8178,1.8273,1.8275,1.8276,0,0,0,0,0,0,1.8072,1.8078,1.8124,1.8103,1.8108,1.8115,1.8128,1.8129,1.8137,1.8147,1.8148,1.8136,1.8158,1.8163,1.8192,1.821,1.8178,1.818,1.8272,1.8274,1.8275,1.8296,0,0,0,0,0,0,1.807,1.8077,1.809,1.8103,1.8109,1.8149,1.8129,1.813,1.8141,1.8139,1.8154,1.8156,1.8157,1.8189,1.8195,1.8213,1.8182,1.827,1.8273,1.8275,1.8294,1.8299,1.8303,0,0,0,0,0,1.8068,1.8095,1.8091,1.8096,1.8125,1.815,1.8154,1.8154,1.8142,1.8156,1.8162,1.8155,1.8207,1.8192,1.8198,1.8218,1.8269,1.8272,1.8275,1.8292,1.8298,1.8302,0,0,0,0,0,0,1.8084,1.8097,1.8092,1.8123,1.8136,1.8148,1.8165,1.816,1.8176,1.8174,1.8174,1.8178,1.8209,1.8216,1.8199,1.8254,1.8237,1.8241,1.8248,1.8253,1.8257,1.8256,1.8184,0,0,0,0,0,1.8092,1.811,1.8119,1.8146,1.8153,1.8158,1.8168,1.8168,1.8181,1.8186,1.8195,1.8208,1.8228,1.8241,1.8259,1.8295,1.8299,1.8311,1.8315,1.8319,1.8323,1.8344,1.835,1.8285,1.8285,1.8285,0,0,1.8107,1.8116,1.8127,1.815,1.8159,1.8179,1.8162,1.8183,1.8199,1.8189,1.8218,1.8225,1.8241,1.8274,1.8289,1.8281,1.8342,1.8322,1.8325,1.8327,1.8347,1.8354,1.8359,1.8287,1.8287,1.8286,0,0,1.8145,1.8152,1.8176,1.8186,1.8201,1.8204,1.821,1.8223,1.8227,1.8255,1.8249,1.8268,1.8301,1.8313,1.8323,1.8367,1.8362,1.8373,1.8395,1.8416,1.8421,1.8426,1.8443,1.8448,1.8376,1.8376,1.8376,0,1.8162,1.8191,1.8189,1.8212,1.8223,1.8215,1.824,1.825,1.827,1.8278,1.8268,1.8311,1.832,1.8357,1.8368,1.8376,1.8384,1.8371,1.842,1.8425,1.8429,1.8445,1.8452,1.8378,1.8377,1.8377,1.8377,0,1.8212,1.8232,1.825,1.8269,1.8282,1.8306,1.8309,1.8323,1.8321,1.8326,1.8356,1.8367,1.8389,1.8397,1.8395,1.8434,1.8429,1.8419,1.8403,1.8437,1.8452,1.8458,1.838,1.8379,1.8379,1.8378,0,0,1.8261,1.828,1.8286,1.8296,1.8311,1.8327,1.8351,1.8371,1.8384,1.8398,1.8419,1.8448,1.844,1.8451,1.8451,1.8469,1.8505,1.8458,1.8459,1.8468,1.855,1.8558,1.8565,1.8501,1.8502,1.8503,1.8549,0,1.8301,1.8342,1.8342,1.8381,1.8401,1.8394,1.8415,1.8427,1.8433,1.8451,1.8457,1.8478,1.8465,1.8472,1.8489,1.8497,1.8522,1.8493,1.8523,1.8524,1.852,1.8573,1.8581,1.8623,1.8555,1.8556,1.8557,0,1.8353,1.8369,1.841,1.8424,1.8432,1.8451,1.847,1.8487,1.8502,1.8505,1.8518,1.8516,1.8542,1.8523,1.856,1.854,1.8552,1.8558,1.856,1.8564,1.8543,1.8579,1.8637,1.8644,1.8566,1.8565,1.8564,0,1.8387,1.8418,1.8447,1.8455,1.8472,1.8485,1.8493,1.8507,1.8519,1.8536,1.8545,1.8565,1.8576,1.8592,1.8596,1.8582,1.8633,1.8615,1.8638,1.8638,1.865,1.8649,1.8711,1.8655,1.8655,1.8655,1.8655,0,1.8433,1.8458,1.8462,1.848,1.8509,1.8509,1.8538,1.8545,1.8557,1.8577,1.8572,1.8591,1.8594,1.8614,1.8617,1.8648,1.8653,1.8657,1.8658,1.8658,1.8658,1.8667,1.8665,1.8657,1.8656,1.8656,1.8656,0,1.8475,1.8479,1.851,1.8523,1.8527,1.8548,1.856,1.8578,1.8583,1.8608,1.8614,1.8622,1.8646,1.8651,1.8678,1.8681,1.8718,1.8715,1.8713,1.8713,1.8736,1.8734,1.8807,1.8818,1.8753,1.8754,1.8754,0,1.8505,1.8524,1.854,1.8552,1.8561,1.8581,1.8594,1.8596,1.861,1.8628,1.8644,1.8667,1.8686,1.8724,1.8733,1.8755,1.8753,1.8777,1.8757,1.8757,1.8755,1.8755,1.8758,1.8782,1.8782,1.8783,1.8783,0,1.8557,1.8558,1.8576,1.8596,1.8612,1.8627,1.8642,1.8653,1.8657,1.8673,1.8696,1.8711,1.8739,1.8763,1.8785,1.8794,1.879,1.879,1.8796,1.8798,1.8796,1.8799,1.8725,1.8788,1.8788,1.8787,1.8787,1.8787,1.8595,1.8612,1.8626,1.8648,1.8659,1.8673,1.8691,1.8698,1.8718,1.8741,1.8741,1.8767,1.8783,1.8812,1.8822,1.8844,1.8837,1.8846,1.8849,1.8851,1.8854,1.8792,1.8848,1.8848,1.8848,1.8847,1.8847,0,1.8648,1.8657,1.8676,1.8697,1.8715,1.8708,1.8725,1.874,1.8763,1.8777,1.8796,1.8824,1.8847,1.8858,1.8881,1.8896,1.8895,1.8903,1.8902,1.8905,1.8859,1.8851,1.8903,1.8903,1.8903,1.8903,1.8903,1.8903,1.8678,1.8708,1.8711,1.8747,1.8756,1.8781,1.8792,1.8805,1.8817,1.8849,1.8868,1.8874,1.8888,1.8912,1.8933,1.8936,1.8946,1.8954,1.8956,1.8913,1.8908,1.8902,1.8895,1.8956,1.8956,1.9001,1.9001,1.9001]},{"header":{"parameterUnit":"m.s-1","parameterCategory":1,"la1":30.2991,"la2":30.254,"lo1":-89.0895,"lo2":-89.0444,"dy":0.0017,"dx":0.0017,"nx":28,"ny":28,"refTime":"2025-03-31T03:00:00:Z","depth":0,"parameterNumber":3,"parameterNumberName":"V-component_of_WINDS"},"data":[0,0,0,0,0,0,0,0,0,0,0,0,0,0,0,0,0,0,0,0,0,0,0,0,0,0,0,0,0,0,0,0,0,0,0,0,0,0,0,0,0,0,0,0,0,0,0,0,0,0,0,0,0,0,0,0,0,0,2.6678,2.6678,0,2.6722,2.6722,2.6723,2.6743,2.6743,2.6743,2.6743,2.6786,2.6787,2.6788,0,0,0,0,0,0,0,0,0,0,0,0,0,2.661,2.6611,2.6678,2.6678,2.6679,2.6722,2.6722,2.6723,2.6743,2.6743,2.6743,2.6743,2.6786,2.6787,2.6789,0,0,0,0,0,0,0,0,0,0,0,0,0,2.6645,2.6611,2.6678,2.6694,2.6696,2.6722,2.6722,2.6723,2.6743,2.6743,2.6743,2.6743,2.6785,2.6787,2.6789,2.6801,0,0,2.6794,2.6795,0,0,0,0,0,0,0,0,2.6643,2.6648,2.6691,2.6693,2.6695,2.6727,2.6714,2.6749,2.6743,2.6725,2.6743,2.6743,2.6766,2.677,2.6778,2.6803,2.6805,2.6794,2.6795,2.6796,2.6797,0,0,0,0,0,0,0,2.6641,2.6646,2.6695,2.6692,2.6694,2.6699,2.6704,2.6721,2.6745,2.6727,2.6728,2.6733,2.6767,2.6776,2.6779,2.6805,2.6794,2.6796,2.6797,2.6798,2.6843,2.6843,0,0,0,0,0,0,2.6636,2.6644,2.6694,2.6696,2.6669,2.67,2.6706,2.6717,2.6745,2.675,2.6733,2.6734,2.6773,2.6777,2.6781,2.6798,2.6796,2.6798,2.6799,2.6843,2.6843,2.6844,0,0,0,0,0,0,2.6634,2.664,2.6692,2.6671,2.6678,2.6701,2.6714,2.6718,2.6726,2.675,2.6755,2.6738,2.6773,2.6778,2.6796,2.6799,2.6799,2.68,2.6843,2.6843,2.6843,2.6831,0,0,0,0,0,0,2.6632,2.6639,2.6644,2.6671,2.6679,2.6707,2.6714,2.6718,2.673,2.6731,2.6756,2.676,2.6774,2.6793,2.6798,2.6802,2.6802,2.6843,2.6843,2.6843,2.6831,2.6831,2.683,0,0,0,0,0,2.663,2.6638,2.6645,2.665,2.6685,2.6707,2.6712,2.6728,2.673,2.6735,2.6751,2.6759,2.6798,2.6795,2.68,2.6805,2.6843,2.6843,2.6843,2.6831,2.6831,2.683,0,0,0,0,0,0,2.6611,2.6642,2.6649,2.6667,2.6684,2.671,2.6717,2.6727,2.6743,2.6744,2.6763,2.6768,2.6784,2.6796,2.6792,2.6818,2.6821,2.6823,2.681,2.681,2.6809,2.6806,2.6803,0,0,0,0,0,2.6609,2.6625,2.6651,2.6664,2.6672,2.6693,2.6703,2.6714,2.6733,2.674,2.6757,2.6774,2.679,2.6801,2.6817,2.6833,2.6839,2.6839,2.6838,2.6838,2.6839,2.6849,2.6849,2.6845,2.6845,2.6845,0,0,2.6605,2.6624,2.6632,2.666,2.6675,2.6691,2.6699,2.6715,2.6726,2.6742,2.6761,2.6773,2.6794,2.6811,2.6819,2.6821,2.6841,2.6838,2.6837,2.6839,2.6849,2.685,2.685,2.6845,2.6845,2.6845,0,0,2.6606,2.6622,2.6635,2.665,2.6672,2.6686,2.669,2.6715,2.6724,2.6743,2.6755,2.6769,2.6797,2.6811,2.6822,2.6829,2.6838,2.6834,2.6831,2.6841,2.6841,2.6842,2.6845,2.6846,2.6835,2.6834,2.6834,0,2.6598,2.6622,2.664,2.6655,2.6668,2.6684,2.6697,2.671,2.6737,2.6745,2.6747,2.6782,2.6797,2.6818,2.682,2.6828,2.6832,2.6831,2.684,2.6841,2.6841,2.6844,2.6846,2.6834,2.6834,2.6834,2.6834,0,2.6612,2.6628,2.6636,2.6662,2.6675,2.6689,2.6709,2.672,2.673,2.6744,2.6763,2.6782,2.6802,2.6808,2.6818,2.6831,2.6832,2.6836,2.684,2.6841,2.6844,2.6846,2.6833,2.6833,2.6833,2.6834,0,0,2.6601,2.6638,2.6641,2.6654,2.668,2.6693,2.6708,2.6729,2.6738,2.6756,2.6769,2.6793,2.6798,2.681,2.6822,2.683,2.6835,2.6834,2.6835,2.6834,2.6852,2.6848,2.6849,2.6841,2.6841,2.6841,2.685,0,2.6606,2.6635,2.6652,2.6673,2.6689,2.6705,2.6718,2.6736,2.6749,2.6764,2.6779,2.6795,2.68,2.6808,2.6817,2.6833,2.6839,2.6832,2.6853,2.6854,2.6849,2.6851,2.6847,2.6855,2.6851,2.6852,2.6852,0,2.6616,2.6634,2.6658,2.6684,2.6691,2.6702,2.6724,2.6738,2.6758,2.6767,2.6782,2.6793,2.681,2.6812,2.6835,2.6829,2.6839,2.6848,2.6849,2.6852,2.6853,2.6855,2.6857,2.6858,2.6854,2.6854,2.6854,0,2.6607,2.6638,2.6656,2.6666,2.6697,2.6705,2.6717,2.6738,2.675,2.6768,2.6776,2.6795,2.6806,2.6821,2.6837,2.6837,2.6859,2.6862,2.6867,2.6867,2.6871,2.6871,2.6876,2.6876,2.6876,2.6876,2.6876,0,2.6611,2.6625,2.6653,2.6664,2.668,2.6699,2.6715,2.6729,2.6747,2.6761,2.6775,2.6788,2.6809,2.6824,2.6837,2.6855,2.6859,2.6867,2.6871,2.6866,2.6865,2.6873,2.6873,2.6877,2.6877,2.6877,2.6877,0,2.6604,2.6623,2.6644,2.6672,2.6679,2.669,2.6713,2.6724,2.6739,2.6757,2.6762,2.6784,2.6803,2.6821,2.6846,2.6855,2.6873,2.6877,2.6866,2.6868,2.6873,2.6872,2.6884,2.6886,2.6884,2.6884,2.6884,0,2.6605,2.6617,2.6646,2.6657,2.667,2.6687,2.6699,2.6719,2.6731,2.6756,2.6764,2.6785,2.6802,2.6831,2.685,2.6869,2.6874,2.6877,2.6877,2.6873,2.6875,2.6874,2.6876,2.6876,2.6876,2.6876,2.6876,0,2.6606,2.6616,2.6634,2.6655,2.667,2.6688,2.6706,2.6714,2.6737,2.675,2.677,2.6784,2.681,2.683,2.6851,2.6864,2.6874,2.6876,2.6878,2.6874,2.6868,2.6872,2.6866,2.6875,2.6876,2.6876,2.6876,2.6876,2.6604,2.6615,2.6638,2.6658,2.6673,2.669,2.6703,2.6719,2.6737,2.676,2.677,2.6791,2.6812,2.6842,2.6855,2.6871,2.6873,2.6876,2.6877,2.6878,2.6877,2.6865,2.6874,2.6874,2.6875,2.6875,2.6875,0,2.6606,2.6622,2.664,2.6666,2.6681,2.669,2.6711,2.6723,2.6741,2.676,2.6777,2.68,2.682,2.684,2.6861,2.687,2.6875,2.6875,2.6875,2.6878,2.6874,2.687,2.687,2.687,2.687,2.687,2.687,2.687,2.6609,2.6629,2.6641,2.6669,2.6684,2.6705,2.6716,2.6732,2.6747,2.6773,2.679,2.6803,2.6823,2.6845,2.6864,2.6869,2.6876,2.6875,2.6881,2.6877,2.6878,2.6878,2.6874,2.6876,2.6876,2.6884,2.6884,2.6884]}]]